[[{"header":{"parameterUnit":"m.s-1","parameterCategory":1,"la1":30.2991,"la2":30.254,"lo1":-89.0895,"lo2":-89.0444,"dy":0.0017,"dx":0.0017,"nx":28,"ny":28,"refTime":"2025-07-18T21:00:00:Z","depth":0,"parameterNumber":2,"parameterNumberName":"U-component_of_WINDS"},"data":[0,0,0,0,0,0,0,0,0,0,0,0,0,0,0,0,0,0,0,0,0,0,0,0,0,0,0,0,0,0,0,0,0,0,0,0,0,0,0,0,0,0,0,0,0,0,0,0,0,0,0,0,0,0,0,0,0,0,1.1686,1.1687,0,1.1771,1.1772,1.1773,1.1774,1.1773,1.1772,1.1771,1.1859,1.1862,1.1866,0,0,0,0,0,0,0,0,0,0,0,0,0,1.1523,1.1526,1.1686,1.1687,1.1688,1.1771,1.1772,1.1774,1.1775,1.1773,1.1772,1.1771,1.1858,1.1862,1.1866,0,0,0,0,0,0,0,0,0,0,0,0,0,1.1599,1.1527,1.1686,1.1698,1.17,1.1771,1.1772,1.1774,1.1775,1.1773,1.1772,1.177,1.1857,1.1862,1.1867,1.193,0,0,1.1882,1.1884,0,0,0,0,0,0,0,0,1.1595,1.1605,1.1695,1.1698,1.17,1.1761,1.1747,1.1826,1.1775,1.1747,1.1771,1.1769,1.1828,1.1835,1.1855,1.1934,1.1938,1.1882,1.1885,1.1888,1.1889,0,0,0,0,0,0,0,1.159,1.1602,1.172,1.1697,1.17,1.17,1.1709,1.1762,1.1795,1.1749,1.1749,1.1759,1.1829,1.185,1.1857,1.1939,1.1882,1.1887,1.189,1.1892,1.2074,1.2076,0,0,0,0,0,0,1.1582,1.1597,1.1717,1.1722,1.1643,1.1704,1.1714,1.1743,1.1795,1.1801,1.1761,1.1759,1.1842,1.1851,1.186,1.1937,1.1888,1.1892,1.1895,1.2072,1.2074,1.2076,0,0,0,0,0,0,1.1578,1.1593,1.1713,1.166,1.1675,1.1709,1.1741,1.1745,1.1766,1.1803,1.1809,1.1776,1.1841,1.1853,1.1912,1.194,1.1895,1.1899,1.207,1.2073,1.2075,1.2091,0,0,0,0,0,0,1.1574,1.1591,1.1616,1.166,1.1678,1.1765,1.1742,1.1748,1.1775,1.1774,1.182,1.1826,1.1841,1.1905,1.1917,1.1946,1.1903,1.2068,1.2071,1.2074,1.2089,1.2094,1.2099,0,0,0,0,0,1.1568,1.1617,1.1617,1.1632,1.171,1.1766,1.1776,1.1793,1.1777,1.1802,1.1826,1.1824,1.1935,1.1911,1.1925,1.1955,1.2066,1.207,1.2074,1.2086,1.2093,1.2099,0,0,0,0,0,0,1.1576,1.1623,1.1624,1.1689,1.1724,1.1766,1.1798,1.18,1.1839,1.1837,1.1855,1.1865,1.1924,1.1946,1.1919,1.2019,1.1998,1.2006,1.2003,1.201,1.2015,1.2009,1.1907,0,0,0,0,0,1.1585,1.1627,1.1666,1.172,1.1737,1.1765,1.179,1.18,1.1836,1.1851,1.1879,1.1914,1.1957,1.1985,1.2026,1.2092,1.2101,1.212,1.2125,1.2129,1.2135,1.217,1.2179,1.209,1.209,1.209,0,0,1.1604,1.1636,1.1661,1.1723,1.175,1.1793,1.1777,1.1824,1.1855,1.1858,1.1916,1.1937,1.1978,1.2041,1.207,1.206,1.2162,1.2134,1.2137,1.2141,1.2175,1.2184,1.2191,1.2093,1.2092,1.2092,0,0,1.1662,1.169,1.1738,1.1766,1.1808,1.1826,1.1837,1.1879,1.1894,1.1952,1.1954,1.1992,1.2066,1.2094,1.2119,1.2186,1.2186,1.2199,1.2227,1.2261,1.2268,1.2274,1.2298,1.2306,1.2205,1.2205,1.2205,0,1.1681,1.1746,1.1762,1.1808,1.1835,1.1838,1.1886,1.1913,1.1966,1.1984,1.1973,1.2065,1.2092,1.2161,1.2177,1.2197,1.221,1.2194,1.2266,1.2272,1.2278,1.2301,1.231,1.2206,1.2206,1.2206,1.2205,0,1.1767,1.1811,1.1845,1.1896,1.1926,1.1973,1.1996,1.2025,1.2031,1.205,1.2109,1.2142,1.219,1.2207,1.2214,1.2277,1.2269,1.2262,1.2242,1.2288,1.2309,1.2318,1.2208,1.2207,1.2207,1.2207,0,0,1.1831,1.1891,1.1902,1.1925,1.1972,1.2007,1.2053,1.21,1.2124,1.216,1.22,1.2261,1.2254,1.2281,1.2292,1.2322,1.2372,1.231,1.2312,1.232,1.2442,1.2447,1.2457,1.2372,1.2374,1.2375,1.2438,0,1.1893,1.1977,1.1992,1.2064,1.2106,1.2109,1.215,1.2183,1.2201,1.2239,1.2259,1.2302,1.229,1.2306,1.2336,1.2359,1.2396,1.2355,1.2408,1.241,1.2397,1.2468,1.2474,1.2532,1.2447,1.2448,1.2449,0,1.1977,1.2015,1.2091,1.2132,1.2149,1.2186,1.2229,1.2265,1.2302,1.2313,1.2343,1.235,1.2398,1.2375,1.2441,1.2413,1.2435,1.245,1.2452,1.2458,1.2432,1.2474,1.2551,1.2559,1.2463,1.2461,1.2461,0,1.2016,1.2086,1.2141,1.2161,1.2209,1.2234,1.2255,1.2291,1.2317,1.2355,1.2372,1.2415,1.2439,1.2472,1.2489,1.2471,1.2554,1.2533,1.2564,1.2564,1.2581,1.258,1.2662,1.2597,1.2596,1.2596,1.2596,0,1.2083,1.2129,1.2159,1.2192,1.2244,1.2261,1.2312,1.2333,1.2364,1.2401,1.2407,1.2442,1.2464,1.2502,1.2516,1.2568,1.2579,1.2589,1.2592,1.2588,1.2587,1.2603,1.2599,1.2599,1.2598,1.2598,1.2597,0,1.2135,1.2157,1.2216,1.2257,1.2268,1.2305,1.2339,1.2372,1.239,1.2437,1.2449,1.2478,1.2522,1.2543,1.2599,1.2608,1.2667,1.2668,1.2655,1.2656,1.2686,1.2682,1.278,1.2794,1.272,1.2721,1.2721,0,1.2176,1.2212,1.2256,1.2282,1.2304,1.2344,1.2371,1.239,1.2417,1.2462,1.2488,1.2533,1.257,1.2641,1.2667,1.2709,1.271,1.2742,1.2717,1.2711,1.271,1.2707,1.2711,1.2746,1.2747,1.2747,1.2748,0,1.2247,1.2256,1.2294,1.2337,1.2369,1.2403,1.2437,1.2457,1.2481,1.2512,1.2557,1.2586,1.2642,1.2686,1.273,1.2751,1.2753,1.2756,1.2765,1.2761,1.2752,1.2756,1.2667,1.2753,1.2753,1.2752,1.2752,1.2752,1.2294,1.2326,1.2362,1.2405,1.2432,1.2463,1.2495,1.2517,1.2556,1.2603,1.2611,1.266,1.2695,1.2753,1.2776,1.2814,1.2807,1.2821,1.2824,1.2827,1.2828,1.2746,1.2822,1.2822,1.2822,1.2822,1.2822,0,1.2364,1.2388,1.2427,1.2474,1.2507,1.2506,1.2543,1.2571,1.2614,1.2646,1.2682,1.2734,1.2777,1.2806,1.2849,1.2873,1.2875,1.2884,1.2882,1.2887,1.2833,1.282,1.2882,1.2882,1.2882,1.2882,1.2882,1.2882,1.2405,1.2458,1.2471,1.2538,1.256,1.2608,1.2629,1.2658,1.2684,1.2741,1.2777,1.2795,1.2826,1.2871,1.291,1.2917,1.2933,1.2942,1.2948,1.2897,1.2891,1.2885,1.2873,1.2945,1.2945,1.3,1.3,1.3]},{"header":{"parameterUnit":"m.s-1","parameterCategory":1,"la1":30.2991,"la2":30.254,"lo1":-89.0895,"lo2":-89.0444,"dy":0.0017,"dx":0.0017,"nx":28,"ny":28,"refTime":"2025-07-18T21:00:00:Z","depth":0,"parameterNumber":3,"parameterNumberName":"V-component_of_WINDS"},"data":[0,0,0,0,0,0,0,0,0,0,0,0,0,0,0,0,0,0,0,0,0,0,0,0,0,0,0,0,0,0,0,0,0,0,0,0,0,0,0,0,0,0,0,0,0,0,0,0,0,0,0,0,0,0,0,0,0,0,6.156,6.1561,0,6.1612,6.1612,6.1613,6.1587,6.1585,6.1584,6.1583,6.1629,6.1631,6.1633,0,0,0,0,0,0,0,0,0,0,0,0,0,6.1433,6.1436,6.156,6.1561,6.1562,6.1612,6.1612,6.1613,6.1587,6.1585,6.1583,6.1582,6.1628,6.1631,6.1634,0,0,0,0,0,0,0,0,0,0,0,0,0,6.1487,6.1437,6.156,6.1555,6.1555,6.1612,6.1612,6.1613,6.1587,6.1585,6.1583,6.1581,6.1627,6.163,6.1634,6.1697,0,0,6.1645,6.1647,0,0,0,0,0,0,0,0,6.1484,6.1491,6.1555,6.1555,6.1555,6.1591,6.1584,6.1641,6.1588,6.1575,6.1583,6.158,6.1617,6.1622,6.1635,6.1699,6.1701,6.1646,6.1648,6.165,6.1651,0,0,0,0,0,0,0,6.148,6.1489,6.158,6.1556,6.1556,6.1548,6.1553,6.1595,6.1606,6.1576,6.1574,6.1581,6.1617,6.1632,6.1636,6.1702,6.1646,6.1649,6.1651,6.1653,6.1821,6.1823,0,0,0,0,0,0,6.1478,6.1486,6.1579,6.1582,6.1514,6.1552,6.1558,6.1581,6.1606,6.1608,6.1582,6.1579,6.1627,6.1632,6.1638,6.1714,6.165,6.1653,6.1655,6.1818,6.1821,6.1823,0,0,0,0,0,0,6.1475,6.1486,6.1577,6.1534,6.1545,6.1556,6.1583,6.1583,6.1598,6.1611,6.1612,6.1596,6.1625,6.1633,6.1683,6.1715,6.1655,6.1658,6.1816,6.1819,6.1822,6.1866,0,0,0,0,0,0,6.1471,6.1485,6.1511,6.1535,6.1547,6.1623,6.1585,6.1586,6.1606,6.1602,6.1624,6.1626,6.1624,6.1678,6.1687,6.1719,6.1661,6.1813,6.1817,6.1821,6.1861,6.187,6.1877,0,0,0,0,0,6.1467,6.1519,6.1512,6.1523,6.1579,6.1625,6.1632,6.1631,6.1608,6.1633,6.1641,6.1625,6.171,6.1683,6.1693,6.1727,6.1811,6.1816,6.1821,6.1858,6.1868,6.1877,0,0,0,0,0,0,6.1496,6.1522,6.1515,6.1577,6.1599,6.162,6.1652,6.1642,6.1669,6.1665,6.166,6.1665,6.1718,6.1727,6.1697,6.1789,6.1757,6.1764,6.1781,6.1791,6.1799,6.1796,6.1664,0,0,0,0,0,6.151,6.1547,6.1567,6.162,6.1632,6.164,6.166,6.1657,6.1679,6.1688,6.17,6.172,6.1751,6.1772,6.1801,6.1863,6.1867,6.1891,6.1899,6.1905,6.1911,6.1945,6.1955,6.184,6.184,6.184,0,0,6.1538,6.1557,6.158,6.1626,6.1643,6.168,6.1648,6.1688,6.1714,6.1693,6.1743,6.1752,6.1774,6.1831,6.1856,6.184,6.1944,6.1912,6.1917,6.1919,6.1951,6.1962,6.1972,6.1843,6.1843,6.1842,0,0,6.1609,6.1627,6.1674,6.1692,6.172,6.1725,6.1737,6.176,6.1766,6.1816,6.1802,6.1832,6.1886,6.1903,6.1919,6.1998,6.1983,6.2007,6.2049,6.2081,6.209,6.2098,6.2126,6.2136,6.2013,6.2013,6.2013,0,6.164,6.1697,6.1698,6.174,6.176,6.1746,6.1792,6.1809,6.1843,6.1857,6.1839,6.1908,6.1921,6.1982,6.2002,6.2015,6.2026,6.2004,6.2089,6.2097,6.2105,6.2131,6.2142,6.2016,6.2016,6.2015,6.2015,0,6.1734,6.1774,6.1807,6.1845,6.1868,6.1912,6.1918,6.1942,6.1938,6.1944,6.1995,6.2012,6.2045,6.2059,6.2054,6.2119,6.2108,6.209,6.2057,6.2119,6.2143,6.2153,6.202,6.2019,6.2018,6.2017,0,0,6.1822,6.1862,6.1874,6.1891,6.1921,6.1951,6.1993,6.2028,6.2049,6.2073,6.2108,6.2155,6.2139,6.2156,6.2153,6.2182,6.2244,6.216,6.2161,6.2175,6.2316,6.2329,6.2341,6.2235,6.2237,6.2238,6.2314,0,6.1895,6.1973,6.1976,6.2046,6.2082,6.207,6.2106,6.2128,6.2136,6.2166,6.2173,6.2207,6.2183,6.2194,6.2222,6.223,6.2272,6.2225,6.2266,6.2267,6.226,6.2354,6.2368,6.2438,6.2323,6.2325,6.2326,0,6.199,6.2021,6.2096,6.2122,6.2137,6.2171,6.2203,6.2233,6.2257,6.226,6.2281,6.2274,6.2316,6.2283,6.234,6.2308,6.2325,6.2332,6.2334,6.2337,6.23,6.2359,6.246,6.2471,6.2342,6.234,6.2339,0,6.2048,6.2108,6.216,6.2175,6.2207,6.2231,6.2245,6.2267,6.2288,6.2315,6.2329,6.236,6.2377,6.24,6.2402,6.2377,6.2459,6.2426,6.2462,6.2462,6.2479,6.2478,6.2584,6.2491,6.2491,6.249,6.249,0,6.2128,6.2174,6.2187,6.2219,6.227,6.2272,6.2321,6.2333,6.2353,6.2386,6.2376,6.2406,6.2407,6.2437,6.2438,6.2485,6.2493,6.2496,6.2495,6.2497,6.2496,6.2507,6.2502,6.2493,6.2493,6.2492,6.2492,0,6.2201,6.2211,6.2268,6.2294,6.2302,6.2338,6.236,6.2389,6.2397,6.2439,6.2448,6.2459,6.2495,6.2499,6.254,6.2541,6.2597,6.2592,6.259,6.2589,6.2625,6.2622,6.2741,6.2757,6.2654,6.2655,6.2656,0,6.2251,6.2287,6.2318,6.2341,6.2357,6.2394,6.2416,6.2419,6.2442,6.2473,6.2499,6.2534,6.2563,6.262,6.263,6.2662,6.2656,6.2696,6.2661,6.2661,6.2657,6.2654,6.2658,6.2703,6.2704,6.2705,6.2706,0,6.234,6.2344,6.2378,6.2415,6.2442,6.247,6.2496,6.2515,6.2521,6.2547,6.2585,6.2608,6.2651,6.2686,6.2717,6.2729,6.2718,6.2717,6.2727,6.2728,6.2726,6.2728,6.2609,6.2714,6.2713,6.2713,6.2712,6.2712,6.2403,6.2435,6.2462,6.25,6.2521,6.2546,6.2576,6.2589,6.2621,6.2659,6.2658,6.27,6.2722,6.2763,6.2778,6.2809,6.2795,6.281,6.2813,6.2817,6.282,6.2722,6.2814,6.2814,6.2814,6.2814,6.2814,0,6.2491,6.2509,6.2545,6.2583,6.2613,6.2604,6.2632,6.2657,6.2695,6.2718,6.2747,6.2791,6.2825,6.2839,6.2872,6.2894,6.289,6.2902,6.29,6.2903,6.2831,6.2819,6.2905,6.2905,6.2905,6.2905,6.2905,6.2905,6.2541,6.2594,6.2601,6.2664,6.268,6.2724,6.2741,6.2763,6.2782,6.2832,6.2862,6.2871,6.2891,6.2925,6.2955,6.2958,6.297,6.2985,6.2986,6.2918,6.2908,6.2899,6.2888,6.2988,6.2988,6.3056,6.3057,6.3057]}]]